This demonstration page uses our WeatherBlox Daily Observations layout. Learn more.

Left ArrowRight Arrow

40.97296, -117.73568

Hourly Observations for August 21, 2022

Temp ( °F °C ) Dew Point ( °F °C ) Humidity (%) Winds ( mph kmh ) Pressure ( in mb ) Visibility ( mi km ) Precip ( " mm )
12:56 am 00:56 Clear 65 18.3 36 2.2 34 34 W 5 7 29.87 1011 10 16 0.00 0.00
1:56 am 01:56 Clear 62 16.7 37 2.8 39 39 N 5 7 29.88 1012 10 16 0.00 0.00
2:56 am 02:56 Clear 58 14.4 36 2.2 44 44 SSW 3 6 29.89 1012 10 16 0.00 0.00
3:56 am 03:56 Clear 57 13.9 38 3.3 49 49 SSE 6 9 29.91 1013 10 16 0.00 0.00
4:56 am 04:56 Clear 58 14.4 38 3.3 47 47 S 8 13 29.91 1013 10 16 0.00 0.00
5:56 am 05:56 Clear 55 12.8 37 2.8 51 51 S 6 9 29.94 1014 10 16 0.00 0.00
6:56 am 06:56 Sunny 58 14.4 38 3.3 47 47 Calm 29.96 1014 10 16 0.00 0.00
7:56 am 07:56 Sunny 70 21.1 41 5 35 35 Calm 29.96 1015 10 16 0.00 0.00
8:56 am 08:56 Sunny 77 25 43 6.1 30 30 NNW 3 6 29.98 1015 10 16 0.00 0.00
9:56 am 09:56 Sunny 83 28.3 46 7.8 28 28 VRB 3 6 29.98 1015 10 16 0.00 0.00
10:56 am 10:56 Sunny 87 30.6 43 6.1 21 21 Calm 29.97 1015 10 16 0.00 0.00
11:56 am 11:56 Sunny 93 33.9 41 5 16 16 SSE 5 7 29.95 1014 10 16 0.00 0.00
12:56 pm 12:56 Sunny 97 36.1 37 2.8 13 13 undefined N/A 29.93 1014 10 16 0.00 0.00
1:56 pm 13:56 Sunny 99 37.2 35 1.7 11 11 W 9 15 29.92 1013 10 16 0.00 0.00
2:56 pm 14:56 Sunny 99 37.2 34 1.1 10 10 WSW 15 24 29.91 1013 10 16 0.00 0.00
3:56 pm 15:56 Sunny 100 37.8 35 1.7 11 11 NNW 8 13 29.90 1012 10 16 0.00 0.00
4:56 pm 16:56 Sunny 99 37.2 36 2.2 11 11 NNW 7 11 29.88 1012 10 16 0.00 0.00
5:56 pm 17:56 Sunny 96 35.6 36 2.2 12 12 WSW 3 6 29.89 1012 10 16 0.00 0.00
6:56 pm 18:56 Sunny 94 34.4 36 2.2 13 13 W 9 15 29.89 1012 10 16 0.00 0.00
7:56 pm 19:56 Clear 84 28.9 37 2.8 19 19 W 8 13 29.90 1012 10 16 0.00 0.00
8:56 pm 20:56 Clear 80 26.7 32 0 17 17 Calm 29.91 1013 10 16 0.00 0.00
9:56 pm 21:56 Clear 80 26.7 31 -0.6 17 17 VRB 3 6 29.92 1013 10 16 0.00 0.00
10:56 pm 22:56 Clear 73 22.8 31 -0.6 21 21 W 3 6 29.93 1014 10 16 0.00 0.00
11:56 pm 23:56 Clear 70 21.1 29 -1.7 22 22 E 6 9 29.93 1014 10 16 0.00 0.00

Powered by AerisWeather